Location: *
(40.7765°S, 106.5327°E)
Time: 12:40:09
(UTC+00:00)

Cosmos 2369 - Visible Passes

Search period start: 26 September 2022 00:00
Search period end: 06 October 2022 00:00
Orbit: 839 x 856 km, 71.0° (Epoch: 25 September)

Date Brightness Start Highest point End Pass type
(mag) Time Alt. Az. Time Alt. Az. Time Alt. Az.
26 Sep 6.6 11:34:03 10° WSW 11:37:33 17° W 11:41:02 10° NW visible
27 Sep 6.7 11:20:39 10° WSW 11:24:13 17° W 11:27:47 10° NW visible
01 Oct 6.6 21:51:50 10° NE 21:55:27 18° E 21:59:06 10° ESE visible
02 Oct 6.5 21:38:33 10° NE 21:42:07 17° E 21:45:41 10° ESE visible
03 Oct 6.5 21:25:18 10° NE 21:28:46 17° E 21:32:16 10° ESE visible
04 Oct 6.5 21:12:02 10° NE 21:15:27 16° E 21:18:51 10° ESE visible
05 Oct 6.4 20:58:47 10° NE 21:02:06 16° E 21:05:25 10° ESE visible
